Year,Month,Day,Hour,Minute,Value (Times are PST for temperature in C)
2012,05,31,09,25,11.30
2012,05,31,09,26,11.30
2012,05,31,09,27,11.30
2012,05,31,09,28,11.40
2012,05,31,09,29,11.40
2012,05,31,09,30,11.40
2012,05,31,09,31,11.40
2012,05,31,09,32,11.40
2012,05,31,09,33,11.40
2012,05,31,09,34,11.30
2012,05,31,09,35,11.30
2012,05,31,09,36,11.30
2012,05,31,09,37,11.30
2012,05,31,09,38,11.30
2012,05,31,09,39,11.30
2012,05,31,09,40,11.30
2012,05,31,09,41,11.40
2012,05,31,09,42,11.40
2012,05,31,09,43,11.40
2012,05,31,09,44,11.40
2012,05,31,09,45,11.40
2012,05,31,09,46,11.40
2012,05,31,09,47,11.50
2012,05,31,09,48,11.60
2012,05,31,09,49,11.60
2012,05,31,09,50,11.60
2012,05,31,09,51,11.60
2012,05,31,09,52,11.70
2012,05,31,09,53,11.70
2012,05,31,09,54,11.70
2012,05,31,09,55,11.80
2012,05,31,09,56,11.80
2012,05,31,09,57,11.80
2012,05,31,09,58,11.80
2012,05,31,09,59,11.80
2012,05,31,10,00,11.80
2012,05,31,10,01,11.80
2012,05,31,10,02,11.80
2012,05,31,10,03,11.80
2012,05,31,10,04,11.80
2012,05,31,10,05,11.80
2012,05,31,10,06,11.80
2012,05,31,10,07,11.90
2012,05,31,10,08,11.90
2012,05,31,10,09,11.90
2012,05,31,10,10,12.00
2012,05,31,10,11,12.00
2012,05,31,10,12,12.00
2012,05,31,10,13,12.10
2012,05,31,10,14,12.10
2012,05,31,10,15,12.10
2012,05,31,10,16,12.10
2012,05,31,10,17,12.10
2012,05,31,10,18,12.10
2012,05,31,10,19,12.10
2012,05,31,10,20,12.10
2012,05,31,10,21,12.10
2012,05,31,10,22,12.10
2012,05,31,10,23,12.10
2012,05,31,10,57,12.20
2012,05,31,10,58,12.20
2012,05,31,10,59,12.20
2012,05,31,11,00,12.20
2012,05,31,11,01,12.20
2012,05,31,11,02,12.20
2012,05,31,11,03,12.20
2012,05,31,11,04,12.30
2012,05,31,11,05,12.30
2012,05,31,11,06,12.30
2012,05,31,11,07,12.40
2012,05,31,11,08,12.40
2012,05,31,11,09,12.50
2012,05,31,11,10,12.50
2012,05,31,11,11,12.40
2012,05,31,11,12,12.30
2012,05,31,11,13,12.30
2012,05,31,11,14,12.30
2012,05,31,11,15,12.30
2012,05,31,11,16,12.30
2012,05,31,11,17,12.30
2012,05,31,11,18,12.30
2012,05,31,11,19,12.30
2012,05,31,11,20,12.40
2012,05,31,11,21,12.40
2012,05,31,11,22,12.40
2012,05,31,11,23,12.40
2012,05,31,11,24,12.40
2012,05,31,11,25,12.50
2012,05,31,11,26,12.50
2012,05,31,11,27,12.50
2012,05,31,11,28,12.50
2012,05,31,11,29,12.40
2012,05,31,11,30,12.50
2012,05,31,11,31,12.50
2012,05,31,11,32,12.50
2012,05,31,11,33,12.50
2012,05,31,11,34,12.60
2012,05,31,11,35,12.60
2012,05,31,11,36,12.60
2012,05,31,11,37,12.60
2012,05,31,11,38,12.60
2012,05,31,11,39,12.60
2012,05,31,11,40,12.70
2012,05,31,11,41,12.80
2012,05,31,11,42,12.80
2012,05,31,11,43,12.80
2012,05,31,11,44,12.90
2012,05,31,11,45,12.80
2012,05,31,11,46,12.80
2012,05,31,11,47,12.80
2012,05,31,11,48,12.80
2012,05,31,11,49,12.80
2012,05,31,11,50,12.90
2012,05,31,11,51,12.80
2012,05,31,11,52,12.90
2012,05,31,11,53,12.90
2012,05,31,11,54,12.80
2012,05,31,11,55,12.80
2012,05,31,11,56,12.70
2012,05,31,11,57,12.70
2012,05,31,11,58,12.60
2012,05,31,11,59,12.50
2012,05,31,12,00,12.50
2012,05,31,12,01,12.40
2012,05,31,12,02,12.30
2012,05,31,12,03,12.20
2012,05,31,12,04,12.20
2012,05,31,12,05,12.10
2012,05,31,12,06,12.10
2012,05,31,12,07,12.00
2012,05,31,12,08,12.00
2012,05,31,12,09,12.10
2012,05,31,12,10,12.10
2012,05,31,12,11,12.20
2012,05,31,12,12,12.20
2012,05,31,12,13,12.20
2012,05,31,12,14,12.20
2012,05,31,12,15,12.20
2012,05,31,12,16,12.20
2012,05,31,12,17,12.30
2012,05,31,12,18,12.30
2012,05,31,12,19,12.40
2012,05,31,12,20,12.50
2012,05,31,12,21,12.50
2012,05,31,12,22,12.50
2012,05,31,12,23,12.50
2012,05,31,12,24,12.50
2012,05,31,12,25,12.50
2012,05,31,12,26,12.60
2012,05,31,12,27,12.70
2012,05,31,12,28,12.70
2012,05,31,12,29,12.70
2012,05,31,12,30,12.70
2012,05,31,12,31,12.70
2012,05,31,12,32,12.60
2012,05,31,12,33,12.60
2012,05,31,12,34,12.60
2012,05,31,12,35,12.60
2012,05,31,12,36,12.60
2012,05,31,12,37,12.80
2012,05,31,12,38,12.80
2012,05,31,12,39,12.90
2012,05,31,12,40,13.00
2012,05,31,12,41,13.00
2012,05,31,12,42,13.10
2012,05,31,12,43,13.20
2012,05,31,12,44,13.20
2012,05,31,12,45,13.10
2012,05,31,12,46,13.10
2012,05,31,12,47,13.10
2012,05,31,12,48,13.10
2012,05,31,12,49,13.10
2012,05,31,12,50,13.10
2012,05,31,12,51,13.20
2012,05,31,12,52,13.20
2012,05,31,12,53,13.10
2012,05,31,12,54,13.00
2012,05,31,12,55,12.90
2012,05,31,12,56,12.70
2012,05,31,12,57,12.60
2012,05,31,12,58,12.60
2012,05,31,12,59,12.50
2012,05,31,13,00,12.40
2012,05,31,13,01,12.30
2012,05,31,13,02,12.30
2012,05,31,13,03,12.30
2012,05,31,13,04,12.30
2012,05,31,13,05,12.30
2012,05,31,13,06,12.30
2012,05,31,13,07,12.30
2012,05,31,13,08,12.30
2012,05,31,13,09,12.30
2012,05,31,13,10,12.30
2012,05,31,13,11,12.30
2012,05,31,13,12,12.30
2012,05,31,13,13,12.30
2012,05,31,13,14,12.40
2012,05,31,13,15,12.40
2012,05,31,13,16,12.40
2012,05,31,13,17,12.30
2012,05,31,13,18,12.30
2012,05,31,13,19,12.30
2012,05,31,13,20,12.30
2012,05,31,13,21,12.30
2012,05,31,13,22,12.30
2012,05,31,13,23,12.30
2012,05,31,13,24,12.30
2012,05,31,13,25,12.30
2012,05,31,13,26,12.30
2012,05,31,13,27,12.30
2012,05,31,13,28,12.30
2012,05,31,13,29,12.20
2012,05,31,13,30,12.20
2012,05,31,13,31,12.30
2012,05,31,13,32,12.30
2012,05,31,13,33,12.30
2012,05,31,13,34,12.30
2012,05,31,13,35,12.30
2012,05,31,13,36,12.30
2012,05,31,13,37,12.20
2012,05,31,13,38,12.10
2012,05,31,13,39,12.10
2012,05,31,13,40,12.10
2012,05,31,13,41,12.10
2012,05,31,13,42,12.10
2012,05,31,13,43,12.20
2012,05,31,13,44,12.20
2012,05,31,13,45,12.30
2012,05,31,13,46,12.30
2012,05,31,13,47,12.40
2012,05,31,13,48,12.40
2012,05,31,13,49,12.40
2012,05,31,13,50,12.40
2012,05,31,13,51,12.40
2012,05,31,13,52,12.40
2012,05,31,13,53,12.50
2012,05,31,13,54,12.50
2012,05,31,13,55,12.50
2012,05,31,13,56,12.50
2012,05,31,13,57,12.50
2012,05,31,13,58,12.50
2012,05,31,13,59,12.40
2012,05,31,14,00,12.40
2012,05,31,14,01,12.40
2012,05,31,14,02,12.30
2012,05,31,14,03,12.30
2012,05,31,14,04,12.30
2012,05,31,14,05,12.30
2012,05,31,14,06,12.30
2012,05,31,14,07,12.30
2012,05,31,14,08,12.40
2012,05,31,14,09,12.50
2012,05,31,14,10,12.40
2012,05,31,14,11,12.30
2012,05,31,14,12,12.30
2012,05,31,14,13,12.30
2012,05,31,14,14,12.30
2012,05,31,14,15,12.30
2012,05,31,14,16,12.30
2012,05,31,14,17,12.30
2012,05,31,14,18,12.30
2012,05,31,14,19,12.30
2012,05,31,14,20,12.20
2012,05,31,14,21,12.30
2012,05,31,14,22,12.30
2012,05,31,14,23,12.30
2012,05,31,14,24,12.30
2012,05,31,14,25,12.30
2012,05,31,14,26,12.30
2012,05,31,14,27,12.30
2012,05,31,14,28,12.30
2012,05,31,14,29,12.30
2012,05,31,14,30,12.40
2012,05,31,14,31,12.40
2012,05,31,14,32,12.50
2012,05,31,14,33,12.50
2012,05,31,14,34,12.50
2012,05,31,14,35,12.60
2012,05,31,14,36,12.60
2012,05,31,14,37,12.50
2012,05,31,14,38,12.50
2012,05,31,14,39,12.50
2012,05,31,14,40,12.50
2012,05,31,14,41,12.50
2012,05,31,14,42,12.50
2012,05,31,14,43,12.50
2012,05,31,14,44,12.50
2012,05,31,14,45,12.50
2012,05,31,14,46,12.60
2012,05,31,14,47,12.60
2012,05,31,14,48,12.60
2012,05,31,14,49,12.60
2012,05,31,14,50,12.70
2012,05,31,14,51,12.70
2012,05,31,14,52,12.70
2012,05,31,14,53,12.80
2012,05,31,14,54,12.80
2012,05,31,14,55,13.00
2012,05,31,14,56,13.00
2012,05,31,14,57,13.00
2012,05,31,14,58,13.00
2012,05,31,14,59,13.10
2012,05,31,15,00,13.10
2012,05,31,15,01,13.10
2012,05,31,15,02,13.10
2012,05,31,15,03,13.20
2012,05,31,15,04,13.20
2012,05,31,15,05,13.30
2012,05,31,15,06,13.30
2012,05,31,15,07,13.30
2012,05,31,15,08,13.30
2012,05,31,15,09,13.30
2012,05,31,15,10,13.20
2012,05,31,15,11,13.20
2012,05,31,15,12,13.20
2012,05,31,15,13,13.20
2012,05,31,15,14,13.20
2012,05,31,15,15,13.20
2012,05,31,15,16,13.20
2012,05,31,15,17,13.10
2012,05,31,15,18,13.10
2012,05,31,15,19,13.10
2012,05,31,15,20,13.10
2012,05,31,15,21,13.10
2012,05,31,15,22,13.00
2012,05,31,15,23,12.90
2012,05,31,15,24,12.90
2012,05,31,15,25,12.80
2012,05,31,15,26,12.80
2012,05,31,15,27,12.80
2012,05,31,15,28,12.80
2012,05,31,15,29,12.80
2012,05,31,15,30,12.80
2012,05,31,15,31,12.80
2012,05,31,15,32,12.90
2012,05,31,15,33,12.90
2012,05,31,15,34,12.90
2012,05,31,15,35,12.80
2012,05,31,15,36,12.80
2012,05,31,15,37,12.80
2012,05,31,15,38,12.80
2012,05,31,15,39,12.80
2012,05,31,15,40,12.80
2012,05,31,15,41,12.80
2012,05,31,15,42,12.80
2012,05,31,15,43,12.80
2012,05,31,15,44,12.90
2012,05,31,15,45,13.00
2012,05,31,15,46,13.00
2012,05,31,15,47,13.00
2012,05,31,15,48,13.00
2012,05,31,15,49,13.00
2012,05,31,15,50,13.00
2012,05,31,15,51,13.10
2012,05,31,15,52,13.00
2012,05,31,15,53,13.00
2012,05,31,15,54,12.90
2012,05,31,15,55,13.00
2012,05,31,15,56,12.90
2012,05,31,15,57,12.90
2012,05,31,15,58,12.80
2012,05,31,15,59,12.90
2012,05,31,16,00,12.90
2012,05,31,16,01,12.80
2012,05,31,16,02,12.80
2012,05,31,16,03,12.80
2012,05,31,16,04,12.80
2012,05,31,16,05,12.80
2012,05,31,16,06,12.80
2012,05,31,16,07,12.80
2012,05,31,16,08,12.70
2012,05,31,16,09,12.70
2012,05,31,16,10,12.70
2012,05,31,16,11,12.60
2012,05,31,16,12,12.60
2012,05,31,16,13,12.60
2012,05,31,16,14,12.60
2012,05,31,16,15,12.60
2012,05,31,16,16,12.50
2012,05,31,16,17,12.50
2012,05,31,16,18,12.50
2012,05,31,16,19,12.50
2012,05,31,16,20,12.50
2012,05,31,16,21,12.50
2012,05,31,16,22,12.50
2012,05,31,16,23,12.60
2012,05,31,16,24,12.60
2012,05,31,16,25,12.60
2012,05,31,16,26,12.70
2012,05,31,16,27,12.70
2012,05,31,16,28,12.70
2012,05,31,16,29,12.60
2012,05,31,16,30,12.60
2012,05,31,16,31,12.50
2012,05,31,16,32,12.50
2012,05,31,16,33,12.50
2012,05,31,16,34,12.50
2012,05,31,16,35,12.50
2012,05,31,16,36,12.50
2012,05,31,16,37,12.50
2012,05,31,16,38,12.50
2012,05,31,16,39,12.50
2012,05,31,16,40,12.50
2012,05,31,16,41,12.50
2012,05,31,16,42,12.50
2012,05,31,16,43,12.50
